Weather History for KFAR - January, 2013

Change the Weather History Date:

Thursday, January 3, 2013

  Actual Average Record
Temperature  
Mean Temperature 9 °F 10 °F  
Max Temperature 22 °F 18 °F 40 °F (1927)
Min Temperature -5 °F 1 °F -35 °F (1919)
Degree Days  
Heating Degree Days 56 55  
Month to date heating degree days 165 165  
Since 1 July heating degree days 3625 3705  
Cooling Degree Days 0 0  
Month to date cooling degree days 0 0  
Year to date cooling degree days 0 0  
Moisture  
Dew Point 5 °F    
Average Humidity 78    
Maximum Humidity 87    
Minimum Humidity 68    
Precipitation  
Precipitation T in 0.03 in 0.28 in (2009)
Month to date precipitation 0.01 0.08  
Year to date precipitation 0.01 0.08  
Snow  
Snow T in 0.40 in 2.80 in (2009)
Month to date snowfall 0.1 1.2  
Since 1 July snowfall 13.6 21.0  
Snow Depth 3.00 in    
Sea Level Pressure  
Sea Level Pressure 30.21 in    
Wind  
Wind Speed 10 mph (SW)    
Max Wind Speed 20 mph    
Max Gust Speed 24 mph    
Visibility 9 miles    
Events Snow    
T = Trace of Precipitation, MM = Missing Value Source: NWS Daily Summary

Daily Weather History Graph

Daily Weather History Graph

Search for Another Location

Airport or City:

Trip Planner

Search our weather history database for the weather conditions in past years. The results will help you decide how hot, cold, wet, or windy it might be!

Date:

Astronomy

Jan. 03, 2013 Rise Set
Actual Time 8:12 AM CST 4:51 PM CST
Civil Twilight 7:37 AM CST 5:26 PM CST
Nautical Twilight 6:59 AM CST 6:05 PM CST
Astronomical Twilight 6:22 AM CST 6:41 PM CST
Moon 11:56 PM CST (1/3) 10:59 AM CST (1/3)
Length of Visible Light 9h 49m
Length of Day
8h 38m
Waning Gibbous, 65% of the Moon is Illuminated
Jan 3
Waning Gibbous
Jan 4
Last Quarter
Jan 11
New
Jan 18
First Quarter
Jan 26
Full

Hourly Weather History & Observations

Time (CST) Temp. Windchill Dew Point Humidity Pressure Visibility Wind Dir Wind Speed Gust Speed Precip Events Conditions
12:53 AM 1.9 °F -13.8 °F -2.9 °F 80% 30.32 in 10.0 mi WNW 10.4 mph - N/A   Partly Cloudy
1:53 AM 1.4 °F -12.5 °F -4.0 °F 78% 30.25 in 10.0 mi NW 8.1 mph - N/A   Clear
2:53 AM -0.0 °F -13.0 °F -5.1 °F 79% 30.34 in 10.0 mi WNW 6.9 mph - N/A   Clear
3:53 AM -2.0 °F -16.6 °F -7.1 °F 79% 30.36 in 10.0 mi WNW 8.1 mph - N/A   Clear
4:53 AM -2.9 °F -15.0 °F -8.0 °F 79% 30.35 in 10.0 mi WSW 5.8 mph - N/A   Clear
5:53 AM -4.0 °F -12.4 °F -9.4 °F 78% 30.28 in 10.0 mi West 3.5 mph - N/A   Clear
6:12 AM -2.2 °F -14.2 °F -9.4 °F 71% 30.28 in 10.0 mi West 5.8 mph - N/A   Mostly Cloudy
6:53 AM 1.9 °F -5.6 °F -4.0 °F 76% 30.35 in 10.0 mi SSW 3.5 mph - N/A   Overcast
7:53 AM 5.0 °F - -0.9 °F 76% 30.35 in 10.0 mi Calm Calm - N/A   Overcast
8:53 AM 7.0 °F -3.3 °F 1.0 °F 77% 30.32 in 9.0 mi SSE 5.8 mph - N/A   Overcast
9:11 AM 8.6 °F -1.3 °F 1.4 °F 73% 30.24 in 1.8 mi SE 5.8 mph - 0.00 in Snow Light Snow
9:26 AM 8.6 °F -2.6 °F 3.2 °F 79% 30.24 in 2.5 mi South 6.9 mph - 0.00 in   Haze
9:38 AM 8.6 °F -3.7 °F 3.2 °F 79% 30.24 in 3.0 mi South 8.1 mph - 0.00 in   Haze
9:53 AM 10.0 °F -0.9 °F 3.9 °F 76% 30.31 in 4.0 mi South 6.9 mph - 0.00 in   Haze
10:53 AM 12.0 °F -0.4 °F 6.1 °F 77% 30.29 in 6.0 mi South 9.2 mph - N/A   Haze
11:53 AM 16.0 °F 3.6 °F 10.0 °F 77% 30.27 in 10.0 mi South 10.4 mph - N/A   Overcast
12:53 PM 19.0 °F 7.5 °F 12.0 °F 74% 30.22 in 10.0 mi SSW 10.4 mph - N/A   Overcast
1:51 PM 21.2 °F 8.3 °F 14.0 °F 74% 30.13 in 10.0 mi WSW 13.8 mph - N/A   Scattered Clouds
1:53 PM 21.9 °F 8.7 °F 14.0 °F 72% 30.19 in 10.0 mi WSW 15.0 mph - N/A   Partly Cloudy
2:53 PM 21.9 °F 8.2 °F 14.0 °F 72% 30.17 in 10.0 mi SSW 16.1 mph 23.0 mph N/A   Clear
3:53 PM 21.9 °F 8.2 °F 14.0 °F 72% 30.16 in 10.0 mi SSW 16.1 mph - N/A   Clear
4:53 PM 21.0 °F 7.6 °F 14.0 °F 74% 30.14 in 10.0 mi SSW 15.0 mph - N/A   Clear
5:53 PM 19.0 °F 5.0 °F 12.9 °F 77% 30.12 in 10.0 mi South 15.0 mph - N/A   Clear
6:53 PM 19.0 °F 4.0 °F 12.9 °F 77% 30.07 in 10.0 mi SSW 17.3 mph - N/A   Clear
7:53 PM 19.9 °F 5.7 °F 14.0 °F 78% 30.04 in 10.0 mi SSW 16.1 mph - N/A   Clear
8:53 PM 19.9 °F 7.3 °F 12.9 °F 74% 30.03 in 10.0 mi SSW 12.7 mph - N/A   Clear
9:53 PM 21.0 °F 8.1 °F 12.9 °F 71% 30.01 in 10.0 mi SSW 13.8 mph - N/A   Clear
10:53 PM 18.0 °F 5.4 °F 10.9 °F 74% 30.03 in 10.0 mi SSW 11.5 mph - N/A   Clear
11:53 PM 21.0 °F 8.1 °F 12.0 °F 68% 30.01 in 10.0 mi SW 13.8 mph - N/A   Clear